Location: Lake Almanor
(40.2485°N, 121.1442°W)
Time: 01:20:56
(UTC-08:00)

STARLINK-1088 - Pass Details

Date: 03 February 2020
Orbit: 345 x 354 km, 53.0° (Epoch: 18 February)

Event Time Altitude Azimuth Distance (km) Brightness Sun altitude
Rises 17:52:29 0° 306° (NW) 2,175 7.3 -5.7°
Reaches altitude 10° 17:54:32 10° 303° (WNW) 1,328 6.2 -6.1°
Maximum altitude 17:57:27 59° 222° (SW) 413 3.3 -6.6°
Drops below altitude 10° 18:00:24 10° 142° (SE) 1,339 5.4 -7.2°
Sets 18:02:22 0° 138° (SE) 2,158 6.4 -7.6°
